• In Lithuania
  • List of Countries
  • For 7 days
  • Water Temperature
  • Satellite Maps
  • Weather Map
  • Weather Widgets
  • user-avatar
    Login

    Hourly Weather Slava Truda

    Today, 23 September, Sunday

    Time Temperature Precipitation Wind Pressure Humidity
    00:00 +21°C° 0 mm 3 mps 761 mmHg 52%
    01:00 +20°C° 0 mm 3 mps 761 mmHg 54%
    02:00 +20°C° 0 mm 3 mps 761 mmHg 57%
    03:00 +19°C° 0 mm 2 mps 760 mmHg 59%
    04:00 +19°C° 0 mm 2 mps 760 mmHg 63%
    05:00 +18°C° 0 mm 3 mps 760 mmHg 66%
    06:00 +18°C° 0 mm 3 mps 760 mmHg 69%
    07:00 +20°C° 0 mm 3 mps 760 mmHg 64%
    08:00 +21°C° 0 mm 3 mps 760 mmHg 59%
    09:00 +23°C° 0 mm 4 mps 759 mmHg 54%
    10:00 +26°C° 0 mm 4 mps 759 mmHg 46%
    11:00 +28°C° 0 mm 4 mps 759 mmHg 39%
    12:00 +30°C° 0 mm 5 mps 759 mmHg 32%
    13:00 +30°C° 0 mm 5 mps 758 mmHg 31%
    14:00 +30°C° 0 mm 6 mps 758 mmHg 31%
    15:00 +32°C° 0 mm 6 mps 758 mmHg 30%
    16:00 +29°C° 0 mm 6 mps 758 mmHg 35%
    17:00 +27°C° 0 mm 6 mps 758 mmHg 41%
    18:00 +26°C° 0 mm 6 mps 758 mmHg 46%
    19:00 +23°C° 0.2 mm 6 mps 759 mmHg 53%
    20:00 +22°C° 0.2 mm 5 mps 759 mmHg 61%
    21:00 +20°C° 0.2 mm 4 mps 760 mmHg 68%
    22:00 +19°C° 0.1 mm 4 mps 760 mmHg 70%
    23:00 +19°C° 0.1 mm 5 mps 761 mmHg 72%

    Tomorrow, 24 September, Monday

    Time Temperature Precipitation Wind Pressure Humidity
    00:00 +17°C° 0.1 mm 5 mps 761 mmHg 74%
    01:00 +17°C° 0 mm 4 mps 761 mmHg 74%
    02:00 +15°C° 0 mm 4 mps 762 mmHg 74%
    03:00 +14°C° 0 mm 3 mps 762 mmHg 74%
    04:00 +13°C° 0 mm 3 mps 762 mmHg 74%
    05:00 +13°C° 0 mm 2 mps 762 mmHg 75%
    06:00 +13°C° 0 mm 2 mps 762 mmHg 75%
    07:00 +14°C° 0 mm 2 mps 763 mmHg 68%
    08:00 +15°C° 0 mm 2 mps 763 mmHg 61%
    09:00 +16°C° 0 mm 2 mps 763 mmHg 54%
    10:00 +18°C° 0 mm 2 mps 762 mmHg 47%
    11:00 +20°C° 0 mm 2 mps 762 mmHg 40%
    12:00 +21°C° 0 mm 2 mps 762 mmHg 33%
    13:00 +22°C° 0 mm 3 mps 761 mmHg 32%
    14:00 +24°C° 0 mm 3 mps 760 mmHg 31%
    15:00 +25°C° 0 mm 3 mps 760 mmHg 31%
    16:00 +25°C° 0 mm 3 mps 759 mmHg 37%
    17:00 +24°C° 0 mm 2 mps 759 mmHg 43%
    18:00 +24°C° 0 mm 2 mps 759 mmHg 49%
    19:00 +22°C° 0 mm 3 mps 758 mmHg 54%
    20:00 +22°C° 0 mm 3 mps 758 mmHg 60%
    21:00 +21°C° 0 mm 3 mps 758 mmHg 66%
    22:00 +21°C° 0 mm 3 mps 757 mmHg 69%
    23:00 +21°C° 0 mm 4 mps 757 mmHg 71%

    Day after tomorrow, 25 September, Tuesday

    Time Temperature Precipitation Wind Pressure Humidity
    00:00 +20°C° 0 mm 4 mps 757 mmHg 74%
    01:00 +20°C° 0 mm 4 mps 756 mmHg 77%
    02:00 +20°C° 0 mm 4 mps 756 mmHg 80%
    03:00 +20°C° 0 mm 4 mps 756 mmHg 83%
    04:00 +19°C° 0 mm 4 mps 756 mmHg 84%
    05:00 +19°C° 0 mm 5 mps 756 mmHg 85%
    06:00 +19°C° 0 mm 5 mps 756 mmHg 87%
    07:00 +17°C° 0.4 mm 5 mps 757 mmHg 84%
    08:00 +16°C° 0.4 mm 5 mps 757 mmHg 80%
    09:00 +15°C° 0.4 mm 6 mps 758 mmHg 77%
    10:00 +15°C° 0.3 mm 5 mps 758 mmHg 72%
    11:00 +15°C° 0.3 mm 5 mps 759 mmHg 67%
    12:00 +15°C° 0.3 mm 4 mps 759 mmHg 63%
    13:00 +15°C° 0.2 mm 4 mps 760 mmHg 63%
    14:00 +15°C° 0.2 mm 4 mps 760 mmHg 64%
    15:00 +15°C° 0.2 mm 4 mps 760 mmHg 64%
    16:00 +15°C° 0.2 mm 4 mps 761 mmHg 64%
    17:00 +14°C° 0.2 mm 4 mps 761 mmHg 65%
    18:00 +14°C° 0.2 mm 4 mps 761 mmHg 65%
    19:00 +14°C° 0 mm 4 mps 762 mmHg 64%
    20:00 +14°C° 0 mm 4 mps 762 mmHg 62%
    21:00 +14°C° 0 mm 4 mps 763 mmHg 61%
    22:00 +14°C° 0 mm 4 mps 763 mmHg 62%
    23:00 +13°C° 0 mm 3 mps 763 mmHg 62%

    26 September, Wednesday

    Time Temperature Precipitation Wind Pressure Humidity
    00:00 +12°C° 0 mm 3 mps 763 mmHg 63%
    01:00 +12°C° 0 mm 3 mps 763 mmHg 65%
    02:00 +12°C° 0 mm 2 mps 764 mmHg 67%
    03:00 +10°C° 0 mm 2 mps 764 mmHg 69%
    04:00 +10°C° 0 mm 2 mps 764 mmHg 70%
    05:00 +10°C° 0 mm 2 mps 765 mmHg 72%
    06:00 +9°C° 0 mm 2 mps 765 mmHg 74%
    07:00 +10°C° 0 mm 2 mps 766 mmHg 68%
    08:00 +12°C° 0 mm 3 mps 766 mmHg 63%
    09:00 +13°C° 0 mm 4 mps 767 mmHg 58%
    10:00 +14°C° 0 mm 3 mps 767 mmHg 52%
    11:00 +14°C° 0 mm 3 mps 767 mmHg 46%
    12:00 +16°C° 0 mm 3 mps 767 mmHg 40%
    13:00 +17°C° 0 mm 3 mps 767 mmHg 38%
    14:00 +17°C° 0 mm 3 mps 767 mmHg 35%
    15:00 +17°C° 0 mm 3 mps 767 mmHg 33%
    16:00 +17°C° 0 mm 3 mps 767 mmHg 33%
    17:00 +16°C° 0 mm 3 mps 768 mmHg 33%
    18:00 +16°C° 0 mm 3 mps 768 mmHg 33%
    19:00 +14°C° 0 mm 3 mps 768 mmHg 35%
    20:00 +13°C° 0 mm 3 mps 769 mmHg 36%
    21:00 +13°C° 0 mm 3 mps 769 mmHg 37%
    22:00 +12°C° 0 mm 3 mps 769 mmHg 38%
    23:00 +12°C° 0 mm 3 mps 769 mmHg 40%

    27 September, Thursday

    Time Temperature Precipitation Wind Pressure Humidity
    00:00 +11°C° 0 mm 3 mps 769 mmHg 41%
    01:00 +10°C° 0 mm 3 mps 769 mmHg 43%
    02:00 +10°C° 0 mm 2 mps 769 mmHg 44%
    03:00 +9°C° 0 mm 2 mps 769 mmHg 46%
    04:00 +9°C° 0 mm 2 mps 769 mmHg 47%
    05:00 +8°C° 0 mm 2 mps 769 mmHg 48%
    06:00 +9°C° 0 mm 1 mps 769 mmHg 49%
    07:00 +10°C° 0 mm 1 mps 769 mmHg 46%
    08:00 +12°C° 0 mm 2 mps 769 mmHg 42%
    09:00 +13°C° 0 mm 2 mps 769 mmHg 38%
    10:00 +15°C° 0 mm 2 mps 769 mmHg 35%
    11:00 +16°C° 0 mm 2 mps 769 mmHg 32%
    12:00 +17°C° 0 mm 2 mps 768 mmHg 29%
    13:00 +17°C° 0 mm 2 mps 768 mmHg 28%
    14:00 +18°C° 0 mm 2 mps 767 mmHg 27%
    15:00 +18°C° 0 mm 3 mps 767 mmHg 26%
    16:00 +17°C° 0 mm 2 mps 767 mmHg 28%
    17:00 +17°C° 0 mm 2 mps 766 mmHg 30%
    18:00 +16°C° 0 mm 2 mps 766 mmHg 31%
    19:00 +15°C° 0 mm 2 mps 767 mmHg 33%
    20:00 +14°C° 0 mm 2 mps 767 mmHg 35%
    21:00 +13°C° 0 mm 2 mps 767 mmHg 36%
    22:00 +13°C° 0 mm 2 mps 767 mmHg 38%
    23:00 +12°C° 0 mm 2 mps 767 mmHg 39%

    28 September, Friday

    Time Temperature Precipitation Wind Pressure Humidity
    00:00 +12°C° 0 mm 2 mps 766 mmHg 41%
    01:00 +12°C° 0 mm 1 mps 766 mmHg 41%
    02:00 +11°C° 0 mm 1 mps 766 mmHg 42%
    03:00 +11°C° 0 mm 1 mps 766 mmHg 42%
    04:00 +11°C° 0 mm 1 mps 766 mmHg 42%
    05:00 +11°C° 0 mm 1 mps 766 mmHg 42%
    06:00 +10°C° 0 mm 1 mps 766 mmHg 41%
    07:00 +12°C° 0 mm 1 mps 765 mmHg 38%
    08:00 +14°C° 0 mm 1 mps 765 mmHg 35%
    09:00 +16°C° 0 mm 2 mps 765 mmHg 31%
    10:00 +17°C° 0 mm 2 mps 765 mmHg 31%
    11:00 +19°C° 0 mm 2 mps 764 mmHg 30%
    12:00 +21°C° 0 mm 2 mps 764 mmHg 30%
    13:00 +21°C° 0 mm 2 mps 763 mmHg 28%
    14:00 +23°C° 0 mm 1 mps 763 mmHg 27%
    15:00 +24°C° 0 mm 1 mps 762 mmHg 26%
    16:00 +23°C° 0 mm 1 mps 762 mmHg 28%
    17:00 +22°C° 0 mm 1 mps 762 mmHg 30%
    18:00 +21°C° 0 mm 1 mps 762 mmHg 32%
    19:00 +19°C° 0 mm 2 mps 762 mmHg 34%
    20:00 +18°C° 0 mm 2 mps 762 mmHg 35%
    21:00 +17°C° 0 mm 2 mps 762 mmHg 36%
    22:00 +17°C° 0 mm 2 mps 762 mmHg 38%
    23:00 +16°C° 0 mm 2 mps 761 mmHg 39%
    Show more